Regional Weather Roundup
Issued by NWS

Home | Current Version | Previous Version | Graphics & Text | Print | Product List | Glossary On
Versions: 1 2 3 4 5 6 7 8 9 10 11 12 13 14 15 16 17 18 19 20 21 22 23 24 25 26 27 28 29 30 31 32 33 34 35 36 37 38 39 40 41 42 43 44 45 46 47 48 49 50
000
ASUS45 KABQ 201201
RWRNM
WEATHER ROUNDUP FOR NEW MEXICO
NATIONAL WEATHER SERVICE ALBUQUERQUE NM
600 AM MDT SUN APR 20 2014

NOTE: "FAIR" MEANS FEW OR NO CLOUDS BELOW 12,000 FEET AGL WITH NO
       SIGNIFICANT WEATHER OR OBSTRUCTIONS TO VISION.

      THIS PRODUCT IS RELEASED AS TWO VERSIONS.  ONE VERSION NEAR
      THE TOP OF THE HOUR CONTAINING PRELIMINARY DATA FROM ALBUQUERQUE
      AND OTHER STATIONS.  A FINAL VERSION WITH ADDITIONAL DATA IS
      ISSUED ABOUT 10 MINUTES AFTER THE HOUR.

NMZ501-503-504-510>518-201300-
NORTHWEST PLATEAU/NORTHCENTRAL MOUNTAINS

CITY           SKY/WX    TMP DP  RH WIND       PRES   REMARKS
FARMINGTON     CLEAR     40  32  73 NE3       30.08S
6HR MIN TEMP:  39; 6HR MAX TEMP:  53;

LOS ALAMOS     PTCLDY    44  38  81 NW7       30.15R
SANTA FE       PTCLDY    44  40  85 W5        30.11S
6HR MIN TEMP:  44; 6HR MAX TEMP:  48; 6HR PCP:  0.04;

TAOS           CLOUDY    43  39  87 E3        30.17R
ANGEL FIRE     LGT RAIN  40  36  85 W6        30.18R

$$
NMZ402-403-502-505>509-201300-
WESTCENTRAL MOUNTAINS/SOUTHWEST MOUNTAINS

CITY           SKY/WX    TMP DP  RH WIND       PRES   REMARKS
GALLUP         CLEAR     35  31  85 S3        30.18S
6HR MIN TEMP:  32; 6HR MAX TEMP:  46;

GRANTS         PTCLDY    32  29  88 CALM      30.18R
SILVER CITY    PTCLDY    43  39  87 NW7       30.17R

$$
NMZ407-409-411-412-201300-
SOUTHERN DESERTS

CITY           SKY/WX    TMP DP  RH WIND       PRES   REMARKS
LORDSBURG      FAIR      45  43  93 CALM      30.13S
DEMING         CLEAR     44  43  96 CALM      30.12S
6HR MIN TEMP:  44; 6HR MAX TEMP:  50; 6HR PCP: TRACE;

LAS CRUCES     CLEAR     45  40  83 W3        30.13S
HOLLOMAN AFB   PTCLDY    45  44  97 SE5       30.11S
ALAMOGORDO     PTCLDY    45  43  93 S3        30.12S
T OR C         CLOUDY    51  47  86 CALM      30.12R
6HR MIN TEMP:  51; 6HR MAX TEMP:  53; 6HR PCP: TRACE;


$$
NMZ519>523-201300-
CENTRAL VALLEYS/CENTRAL HIGHLANDS

CITY           SKY/WX    TMP DP  RH WIND       PRES   REMARKS
ALBUQUERQUE    MOCLDY    47  43  86 SE7       30.12R
6HR MIN TEMP:  47; 6HR MAX TEMP:  52; 6HR PCP: TRACE;

DOUBLE EAGLE   FOG       37  37 100 CALM      30.13R VSB 1/4
MORIARTY ARPT  CLOUDY    42  39  88 CALM      30.13S
6HR MIN TEMP:  41; 6HR MAX TEMP:  47;

CLINES CORNERS CLOUDY    43  40  89 NW15      30.11R
6HR MIN TEMP:  42; 6HR MAX TEMP:  45;

BELEN          CLOUDY    49  47  93 CALM      30.12R
6HR MIN TEMP:  48; 6HR MAX TEMP:  51;

SOCORRO        NOT AVBL

$$
NMZ524>526-539-540-201300-
SOUTHCENTRAL MOUNTAINS

CITY           SKY/WX    TMP DP  RH WIND       PRES   REMARKS
RUIDOSO        NOT AVBL

$$
NMZ527>531-201300-
NORTHEAST HIGHLANDS/NORTHEAST PLAINS

CITY           SKY/WX    TMP DP  RH WIND       PRES   REMARKS
LAS VEGAS      CLOUDY    44  39  82 CALM      30.11R
6HR MIN TEMP:  41; 6HR MAX TEMP:  46; 6HR PCP: TRACE;

RATON          CLOUDY    46  43  89 W7        30.06S
6HR MIN TEMP:  46; 6HR MAX TEMP:  51; 6HR PCP:  0.01;

CLAYTON        MOCLDY    50  46  86 SW7       30.03S
6HR MIN TEMP:  47; 6HR MAX TEMP:  53;


$$
NMZ532>537-201300-
EASTCENTRAL PLAINS

CITY           SKY/WX    TMP DP  RH WIND       PRES   REMARKS
TUCUMCARI      PTCLDY    51  44  77 W12       30.02R
6HR MIN TEMP:  51; 6HR MAX TEMP:  56;

CANNON AFB     NOT AVBL
CLOVIS AIRPORT CLEAR     48  46  93 S10       30.09S

$$
NMZ028-029-538-201300-
SOUTHEAST PLAINS

CITY           SKY/WX    TMP DP  RH WIND       PRES   REMARKS
ROSWELL        MOCLDY    47  44  90 SW6       30.06R
6HR MIN TEMP:  45; 6HR MAX TEMP:  53;

ARTESIA        CLEAR     45  45 100 S8        30.09R
CARLSBAD       PTCLDY    54  51  90 N7        30.06R
6HR MIN TEMP:  53; 6HR MAX TEMP:  57;

HOBBS          FOG       52  52 100 SW7       30.09  VSB 1/2


$$



USA.gov is the U.S. government's official web portal to all federal, state and local government web resources and services.